This demonstration page uses our WeatherBlox Daily Observations layout. Learn more.

Left ArrowRight Arrow

38.88101, -77.10428

Hourly Observations for July 27, 2016

Temp ( °F °C ) Dew Point ( °F °C ) Humidity (%) Winds ( mph kmh ) Pressure ( in mb ) Visibility ( mi km ) Precip ( " mm )
12:52 am 00:52 Cloudy 84 28.9 72 22.2 67 67 S 3 6 29.94 1014 10 16.0934 0 0
1:52 am 01:52 Mostly Cloudy 82 28 73 23 74 74 W 7 11 29.94 1014 10 16.0934 0 0
2:52 am 02:52 Cloudy 82 27.8 72 22.2 72 72 WSW 7 11 29.94 1014 10 16.0934 0 0
3:52 am 03:52 Cloudy 82 27.8 72 22.2 72 72 NW 3 6 29.93 1014 10 16.0934 0 0
4:52 am 04:52 Cloudy 82 27.8 72 22.2 72 72 Calm 29.93 1014 10 16.0934 0 0
5:52 am 05:52 Mostly Cloudy 81 27.2 73 22.8 77 77 N 6 9 29.94 1014 10 16.0934 0 0
6:52 am 06:52 Mostly Cloudy 81 27.2 73 22.8 77 77 NNW 7 11 29.95 1014 10 16.0934 0 0
7:52 am 07:52 Partly Cloudy 83 28.3 72 22.2 70 70 N 8 13 29.95 1014 10 16.0934 0 0
8:52 am 08:52 Mostly Cloudy 85 29.4 68 20 57 57 N 7 11 29.96 1015 10 16.0934 0 0
9:52 am 09:52 Mostly Cloudy 87 30.6 68 20 53 53 N 6 9 29.96 1015 10 16.0934 0 0
10:52 am 10:52 Mostly Cloudy 90 32.2 69 20.6 50 50 WNW 6 9 29.96 1015 10 16.0934 0 0
11:52 am 11:52 Mostly Cloudy 91 32.8 67 19.4 45 45 NW 7 11 29.97 1015 10 16.0934 0 0
12:52 pm 12:52 Mostly Cloudy 93 33.9 60 15.6 33 33 N 9 15 29.96 1015 10 16.0934 0 0
1:52 pm 13:52 Partly Cloudy 95 35 63 17.2 35 35 N 10 17 29.94 1014 10 16.0934 0 0
2:52 pm 14:52 Mostly Cloudy 95 35 64 17.8 36 36 NE 9 15 29.93 1013 10 16.0934 0 0
3:52 pm 15:52 Mostly Cloudy 94 34.4 65 18.3 38 38 VRB 5 7 29.91 1013 10 16.0934 0 0
4:52 pm 16:52 Mostly Cloudy 93 33.9 68 20 44 44 E 7 11 29.9 1013 10 16.0934 0 0
5:52 pm 17:52 Mostly Cloudy 93 33.9 66 18.9 41 41 Calm 29.9 1012 10 16.0934 0 0
6:52 pm 18:52 Mostly Cloudy 92 33.3 66 18.9 43 43 S 7 11 29.89 1012 10 16.0934 0 0
7:52 pm 19:52 Mostly Cloudy 90 32.2 69 20.6 50 50 S 8 13 29.91 1013 10 16.0934 0 0
8:52 pm 20:52 Clear 88 31.1 72 22.2 59 59 SSE 8 13 29.89 1012 10 16.0934 0 0
9:52 pm 21:52 Mostly Cloudy 86 30 73 22.8 65 65 SSE 6 9 29.91 1013 10 16.0934 0 0
10:52 pm 22:52 Mostly Cloudy 85 29.4 73 22.8 68 68 SSW 9 15 29.91 1013 10 16.0934 0 0
11:52 pm 23:52 Mostly Clear 84 28.9 74 23.3 72 72 S 8 13 29.91 1013 10 16.0934 0 0

Powered by AerisWeather